Regional Weather Roundup
Issued by NWS

Home | Current Version | Previous Version | Text Only | Print | Product List | Glossary Off
Versions: 1 2 3 4 5 6 7 8 9 10 11 12 13 14 15 16 17 18 19 20 21 22 23 24 25 26 27 28 29 30 31 32 33 34 35 36 37 38 39 40 41 42 43 44 45 46 47 48 49 50

000
ASUS43 KLOT 031300
RWRIL

ILLINOIS REGIONAL WEATHER ROUNDUP
NATIONAL WEATHER SERVICE CHICAGO/ROMEOVILLE IL
800 AM CDT FRI JUL 03 2015

NOTE: "FAIR" INDICATES FEW OR NO CLOUDS BELOW 12,000 FEET WITH NO
SIGNIFICANT WEATHER AND/OR OBSTRUCTIONS TO VISIBILITY.

* THESE STATIONS ARE NOT UNDER NWS QUALITY CONTROL. THEY ALSO MAY NOT
  REPORT WEATHER SUCH AS PRECIPITATION OR FOG.

ILZ001-002-007-009-015-016-024-031400-
NORTHWEST ILLINOIS

CITY           SKY/WX    TMP DP  RH WIND       PRES   REMARKS
MOLINE         PTSUNNY   63  55  75 NE7       29.98R
STERLING*      PTSUNNY   61  54  77 E6        29.99R
$$

ILZ003-004-008-010-011-017-018-031400-
NORTH CENTRAL ILLINOIS

CITY           SKY/WX    TMP DP  RH WIND       PRES   REMARKS
ROCKFORD       CLOUDY    62  51  67 NE3       30.00S
$$

ILZ005-006-012>014-019>023-031400-
NORTHEAST ILLINOIS

CITY           SKY/WX    TMP DP  RH WIND       PRES   REMARKS
CHICAGO-OHARE  CLOUDY    61  55  81 CALM      29.98S
CHICAGO-MIDWAY CLOUDY    66  57  72 E6        29.98R
AURORA         CLOUDY    62  54  74 E6        29.99R
WAUKEGAN       PTSUNNY   60  55  83 NE3       29.99R
DUPAGE AIRPORT PTSUNNY   62  55  77 NE3       29.98R
WHEELING       PTSUNNY   63  56  78 NE3       30.00R
NORTHERLY ISL    N/A     63  56  78 E3          N/A
$$

LMZ740>746-031400-
SOUTHERN LAKE MICHIGAN

STATION/POSITION SKY/WX   TEMP    WIND        PRES    VSBY  WAVE
                          AIR SEA DIR/SP/G                  HT/PER
                          (F)     (DEG/KT/KT) (MB)    (MI)  (FT/S)
HARRISON CRIB              61      80/  3/  3   N/A
BURNHAM HARBOR             62      30/  3/  4   N/A
CALUMET HARBOR             63      50/  5/  6   N/A
BURNS HARBOR               65     120/ 10/ 15 1015.6R
MICHIGAN CITY              61     100/  4/  5   N/A
MICHIGAN CITY 6N           62 63  120/  8/ 12   N/A           1/ 4
ST. JOSEPH                 60 61                N/A           1/ 4
$$

ILZ025>027-034>036-040-047-049-050-058-095>099-031400-
WEST-CENTRAL ILLINOIS

CITY           SKY/WX    TMP DP  RH WIND       PRES   REMARKS
QUINCY         MOSUNNY   64  60  87 NE8       29.95R
$$

ILZ028>032-037-038-041>044-048-051>054-059>061-031400-
CENTRAL ILLINOIS

CITY           SKY/WX    TMP DP  RH WIND       PRES   REMARKS
DECATUR        PTSUNNY   66  61  84 NE8       29.92S
PEORIA         PTSUNNY   64  56  75 NE7       29.96R
SPRINGFIELD    PTSUNNY   65  60  84 N6        29.94R
TAYLORVILLE    NOT AVBL
$$

ILZ033-039-045-046-055>057-062-063-031400-
EAST-CENTRAL ILLINOIS

CITY           SKY/WX    TMP DP  RH WIND       PRES   REMARKS
CHAMPAIGN      PTSUNNY   66  59  78 NE7       29.92F
MATTOON        PTSUNNY   67  63  87 NE7       29.90R
$$

ILZ079-100>102-031400-
SOUTHWEST ILLINOIS

CITY           SKY/WX    TMP DP  RH WIND       PRES   REMARKS
ALTON          SUNNY     66  66 100 N6        29.92R
BELLEVILLE     SUNNY     69  67  95 VRB3      29.89S
CAHOKIA*       PTSUNNY   71  63  75 N6        29.90S
$$

ILZ064>066-069>071-074>076-080>082-084>086-088>090-092>094-031400-
SOUTH-CENTRAL ILLINOIS

CITY           SKY/WX    TMP DP  RH WIND       PRES   REMARKS
CARBONDALE     MOSUNNY   71  65  81 N6        29.87S
MARION         MOSUNNY   72  68  88 N6        29.88S
MT. VERNON     MOSUNNY   70  63  78 N5        29.89S
$$

ILZ067-068-072-073-078-083-087-091-031400-
SOUTHEAST ILLINOIS

CITY           SKY/WX    TMP DP  RH WIND       PRES   REMARKS
LAWRENCEVILLE  CLOUDY    71  67  87 NE8       29.87S FOG
$$

ABBREVIATIONS USED IN REMARKS
   TC - TEMPERATURE IN CELSIUS
  WCI - WIND CHILL INDEX
   HX - HEAT INDEX
  VSB - VISIBILITY
$$




USA.gov is the U.S. government's official web portal to all federal, state and local government web resources and services.